Flag for United Arab Emirates Weather past 2 weeks in Abu Dhabi, Abu Dhabi, United Arab Emirates

Now
82 °F

Sunny.


Feels Like: 85 °F
Forecast: 85 / 90 °F
Wind: 2 mph from North

Location: Abu Dhabi Bateen Airport

Current Time: Oct 22, 2014 at 8:17:11 AM

Latest Report: Oct 22, 2014 at 8:00 AM


Visibility: 10 mi

Pressure: 29.98 "Hg

Humidity: 62%

Dew point: 68 °F

Location of Abu DhabiLocation

Historic Weather in Abu Dhabi — Graph

°F

Abu Dhabi temperature yesterday

Maximum temperature yesterday: 102 °F (at 2:00 PM)
Minimum temperature yesterday: 77 °F (at 7:00 AM)
Average temperature yesterday: 88 °F

Past Weeks' High & Low Weather Summary

 TemperatureHumidityPressure
High104 °F (Oct 14, 1:00 PM)84% (Oct 8, 6:00 AM)29.98 "Hg (Oct 8, 6:00 AM)
Low77 °F (Oct 21, 7:00 AM)11% (Oct 21, 2:00 PM)29.56 "Hg (Oct 11, 1:00 PM)
Average89 °F55%29.85 "Hg
* Reported Oct 7 7:00 AM — Oct 22 7:00 AM, Abu Dhabi, Weather by CustomWeather, © 2014

Note: Actual official high and low records may vary slightly from our data, if they occured in-between our weather recording intervals... More about our weather records

Advertising

Abu Dhabi weather history for previous 24 hours

 ConditionsComfort  
Time TempWeatherWind HumidityBarometerVisibility
7:00 AM
Oct 22
79 °FSunny.3 mph51%29.95 "Hg10 mi
6:00 AM79 °FClear.3 mph51%29.92 "Hg10 mi
5:00 AM79 °FClear.6 mph54%29.92 "Hg10 mi
4:00 AM79 °FClear.8 mph61%29.89 "Hg10 mi
3:00 AM79 °FPassing clouds.8 mph65%29.92 "HgN/A
2:00 AM81 °FClear.6 mph66%29.92 "Hg10 mi
1:00 AM82 °FClear.6 mph66%29.92 "Hg10 mi
12:00 AM84 °FPassing clouds.5 mph66%29.92 "HgN/A
11:00 PM
Oct 21
86 °FClear.7 mph70%29.92 "Hg10 mi
10:00 PM86 °FClear.6 mph66%29.95 "Hg10 mi
9:00 PM86 °FClear.6 mph66%29.95 "Hg10 mi
8:00 PM88 °FClear.8 mph59%29.92 "Hg10 mi
7:00 PM88 °FClear.6 mph66%29.92 "Hg10 mi
6:00 PM90 °FPassing clouds.8 mph59%29.89 "HgN/A
5:00 PM93 °FSunny.9 mph47%29.89 "Hg10 mi
4:00 PM95 °FSunny.10 mph34%29.86 "Hg10 mi
3:00 PM97 °FSunny.12 mph30%29.86 "Hg10 mi
2:00 PM102 °FPassing clouds.5 mph11%29.89 "HgN/A
1:00 PM100 °FPassing clouds.8 mph14%29.89 "HgN/A
12:00 PM97 °FPassing clouds.8 mph19%29.92 "HgN/A
11:00 AM93 °FPassing clouds.8 mph26%29.95 "HgN/A
10:00 AM90 °FSunny.8 mph29%29.98 "Hg10 mi
9:00 AM84 °FSunny.9 mph51%29.98 "Hg10 mi
8:00 AM81 °FSunny.6 mph62%29.95 "Hg10 mi
Weather by CustomWeather, © 2014

See weather overviewHow to use our weather pages